Probability
39 45 48 42 48 52 61 65 52 48 39 35 35 32 32 29 23 29 29 29 32 32 35 32 32 32 32 29 26 29 26 29 29 13 10 13 10 16 16 16 16 10 13
39 45 48 42 45 52 55 58 61 55 48 39 39 35 29 29 29 29 29 32 32 35 29 35 35 32 32 32 29 26 26 26 23 16 16 16 16 19 6 16 13 6 6
29 39 35 42 42 48 52 52 52 48 39 35 35 26 29 29 29 23 26 26 26 26 26 23 29 26 26 23 26 26 26 26 23 16 23 16 10 10 10 10 3 19 6
23 26 35 35 39 42 48 42 45 45 35 35 32 29 35 32 26 23 19 23 23 26 26 23 23 26 19 23 23 23 29 29 23 19 19 19 10 13 16 13 6 16 19
29 32 32 29 39 39 45 42 42 39 32 32 35 35 35 23 26 19 19 19 19 19 23 23 19 23 23 23 23 23 23 23 19 19 16 19 16 10 13 6 10 10 0
19 29 29 29 29 29 35 39 35 35 39 29 29 29 29 26 23 19 19 19 19 19 16 16 19 23 19 16 19 16 16 23 19 19 19 19 16 13 13 10 13 10 3
19 19 23 26 26 29 29 26 26 29 26 26 23 23 23 26 29 26 19 19 19 13 13 10 16 16 19 19 19 16 16 13 16 13 19 19 16 19 19 13 13 13 3
19 16 19 23 19 26 26 32 29 32 26 29 23 23 23 23 16 23 19 23 23 16 13 16 16 19 19 10 10 13 10 13 16 16 19 23 16 23 16 16 10 6 0
16 19 19 19 19 29 29 29 26 29 26 23 23 23 23 19 16 19 19 13 16 16 16 19 13 13 6 10 10 10 13 13 16 16 16 13 16 16 16 16 10 6 3
13 16 19 23 26 26 29 29 29 29 23 23 23 16 16 19 16 16 16 13 13 13 13 16 10 6 6 10 13 13 13 10 13 19 13 19 19 13 16 16 16 3 6
16 13 16 23 23 23 23 26 26 26 23 19 13 13 13 13 10 13 13 13 13 13 13 10 6 6 6 6 10 10 10 10 10 16 16 16 16 13 16 13 13 13 10
16 16 16 19 13 10 16 16 19 19 16 19 13 16 16 13 10 13 13 13 13 10 6 6 6 6 6 6 6 10 6 6 6 10 13 13 13 16 19 16 13 13 13
13 13 13 3 3 3 6 13 10 13 19 19 13 16 16 13 13 13 13 13 10 6 6 6 6 6 6 6 6 10 10 6 3 6 6 6 10 13 16 16 16 10 10
10 10 10 6 6 3 0 0 3 6 10 13 19 19 19 19 19 13 6 6 6 3 3 3 3 3 3 6 6 10 10 6 6 3 3 3 6 3 10 6 6 6 6
6 10 6 3 3 3 3 3 6 10 6 6 16 19 19 19 16 6 6 3 3 3 3 3 3 3 3 3 3 3 6 6 6 6 6 3 3 3 3 3 10 6 6
6 10 6 6 3 3 0 0 3 6 3 6 13 19 16 10 10 10 10 10 6 3 3 3 3 0 0 0 0 3 3 3 3 6 6 6 3 3 0 0 0 0 3
6 10 6 6 3 0 6 6 0 6 6 3 6 6 10 6 3 0 3 3 3 3 3 0 0 0 0 0 0 0 3 3 0 0 0 0 0 0 0 0 0 0 0
10 10 6 3 0 0 0 3 0 0 3 3 0 0 0 3 6 0 0 3 3 3 3 0 0 3 0 0 0 0 3 3 0 0 3 6 0 0 0 3 0 0 0
6 6 0 3 0 0 0 0 0 0 0 3 3 0 0 3 3 3 6 6 6 3 3 3 3 3 3 0 0 0 3 3 3 0 0 3 3 0 0 0 3 3 3
6 0 3 0 0 0 0 0 0 0 0 0 0 0 0 3 3 3 6 6 6 6 3 3 3 3 6 0 0 0 3 3 0 6 0 0 0 0 0 0 3 3 3
3 3 3 3 3 0 0 3 6 3 3 3 3 0 3 3 3 3 3 3 3 3 3 3 6 6 6 3 0 0 3 0 3 0 0 0 0 0 0 0 3 0 0
3 3 3 3 3 0 0 0 3 3 6 3 3 3 3 3 0 6 6 10 10 10 3 6 3 3 6 0 0 0 0 0 3 0 0 0 0 0 0 0 0 0 0
3 3 3 3 0 3 3 6 6 6 3 3 3 3 3 3 6 6 6 6 10 6 0 0 0 0 0 3 0 0 0 0 0 0 0 0 0 0 0 0 0 0 0
3 3 0 0 3 3 3 6 6 3 3 3 3 3 3 0 0 0 0 0 0 0 0 0 0 3 3 0 0 0 0 0 0 0 0 0 0 0 0 0 0 0 0
3 3 0 3 3 3 3 3 3 3 3 3 3 3 0 0 0 0 0 0 0 0 0 0 0 0 3 0 0 0 0 0 3 0 0 0 0 0 0 0 0 0 0
3 3 0 0 0 3 6 3 3 3 3 3 3 0 0 0 0 0 0 0 0 0 0 0 0 0 0 0 0 0 0 0 0 0 0 0 0 0 0 0 0 0 0
Height
5829 5828 5827 5826 5824 5823 5823 5822 5820 5818 5816 5815 5813 5811 5810 5809 5807 5806 5805 5805 5805 5805 5804 5803 5802 5801 5800 5799 5798 5797 5795 5794 5792 5791 5789 5788 5786 5785 5784 5783 5782 5782 5781
5824 5822 5821 5820 5819 5818 5817 5816 5814 5812 5811 5809 5807 5806 5804 5803 5802 5801 5800 5800 5800 5800 5799 5798 5797 5796 5794 5794 5792 5791 5789 5788 5786 5785 5783 5782 5781 5779 5778 5776 5776 5775 5774
5818 5817 5816 5814 5813 5812 5811 5809 5808 5806 5805 5803 5802 5800 5799 5798 5797 5796 5795 5795 5795 5794 5793 5792 5791 5790 5788 5787 5786 5784 5783 5782 5780 5778 5777 5776 5774 5773 5772 5770 5769 5767 5767
5812 5811 5809 5808 5807 5806 5804 5802 5801 5800 5799 5797 5796 5794 5794 5793 5792 5791 5790 5790 5789 5789 5788 5787 5785 5784 5783 5781 5780 5778 5777 5775 5774 5772 5770 5769 5767 5766 5765 5764 5762 5761 5760
5807 5805 5804 5802 5801 5799 5798 5796 5795 5794 5792 5791 5790 5789 5788 5788 5787 5786 5785 5784 5784 5783 5782 5781 5780 5778 5777 5776 5774 5772 5771 5769 5767 5766 5764 5762 5761 5758 5757 5756 5755 5754 5753
5802 5800 5798 5797 5795 5793 5791 5790 5789 5788 5786 5785 5784 5784 5783 5782 5781 5781 5780 5779 5778 5777 5776 5775 5774 5773 5771 5769 5768 5766 5765 5763 5761 5759 5757 5755 5754 5752 5750 5749 5748 5747 5746
5797 5795 5793 5791 5788 5787 5785 5784 5783 5782 5781 5780 5779 5779 5778 5777 5776 5776 5775 5774 5773 5772 5771 5770 5768 5767 5766 5764 5762 5760 5758 5757 5755 5753 5751 5749 5747 5745 5743 5742 5741 5740 5738
5792 5790 5788 5786 5784 5782 5780 5779 5778 5777 5776 5775 5774 5774 5773 5772 5771 5770 5769 5768 5767 5766 5765 5764 5763 5761 5760 5758 5756 5754 5752 5751 5749 5746 5744 5742 5740 5738 5736 5735 5733 5732 5730
5788 5786 5784 5782 5780 5778 5776 5774 5773 5772 5771 5770 5769 5769 5767 5767 5766 5765 5763 5762 5761 5760 5759 5758 5757 5755 5753 5752 5750 5748 5746 5744 5742 5740 5737 5735 5733 5731 5729 5727 5725 5724 5722
5785 5782 5780 5778 5776 5774 5772 5770 5769 5767 5766 5765 5764 5764 5763 5761 5760 5759 5758 5757 5756 5754 5753 5752 5751 5749 5747 5746 5744 5741 5739 5737 5735 5733 5731 5728 5726 5724 5722 5720 5717 5715 5714
5781 5779 5776 5774 5772 5770 5768 5767 5765 5764 5762 5761 5760 5759 5758 5757 5755 5754 5752 5751 5750 5749 5747 5746 5744 5743 5741 5739 5737 5735 5733 5730 5728 5726 5724 5721 5719 5717 5714 5712 5710 5707 5705
5778 5775 5773 5771 5769 5767 5765 5763 5762 5761 5760 5758 5757 5756 5754 5753 5751 5749 5748 5746 5745 5743 5742 5740 5739 5737 5735 5733 5731 5729 5726 5723 5721 5718 5716 5714 5712 5709 5707 5705 5702 5700 5698
5775 5773 5770 5768 5766 5764 5762 5761 5760 5758 5757 5755 5754 5752 5751 5749 5747 5745 5743 5741 5740 5738 5737 5735 5733 5731 5729 5727 5725 5722 5719 5717 5714 5712 5709 5707 5704 5702 5699 5697 5694 5692 5690
5773 5771 5769 5766 5764 5762 5760 5759 5758 5756 5754 5752 5751 5749 5748 5745 5743 5741 5739 5737 5735 5733 5732 5730 5728 5726 5724 5721 5719 5716 5713 5710 5708 5705 5703 5700 5697 5694 5691 5689 5686 5684 5682
5771 5769 5767 5764 5762 5760 5759 5757 5755 5754 5752 5749 5748 5746 5744 5742 5739 5737 5735 5733 5731 5729 5728 5726 5724 5722 5719 5716 5713 5710 5707 5704 5702 5699 5696 5693 5690 5687 5684 5681 5678 5676 5673
5769 5767 5764 5762 5760 5758 5757 5755 5753 5751 5749 5747 5745 5743 5741 5739 5736 5734 5731 5729 5727 5726 5724 5722 5720 5717 5714 5711 5708 5705 5702 5699 5696 5693 5690 5686 5683 5680 5677 5674 5671 5668 5665
5767 5765 5762 5760 5758 5757 5755 5753 5751 5749 5747 5745 5743 5741 5738 5736 5733 5730 5728 5727 5724 5722 5720 5718 5715 5713 5710 5707 5704 5700 5697 5693 5690 5687 5684 5680 5676 5673 5670 5667 5664 5661 5658
5766 5763 5761 5759 5757 5755 5753 5751 5749 5747 5745 5744 5741 5739 5736 5733 5730 5728 5726 5723 5721 5719 5717 5714 5711 5709 5706 5703 5699 5696 5692 5689 5685 5681 5677 5674 5670 5667 5664 5661 5658 5654 5651
5763 5761 5759 5757 5755 5752 5750 5749 5747 5745 5744 5742 5739 5737 5734 5731 5728 5726 5723 5721 5718 5716 5713 5710 5707 5704 5701 5698 5695 5691 5688 5684 5680 5676 5672 5669 5665 5661 5658 5655 5651 5648 5645
5761 5759 5757 5755 5752 5750 5748 5746 5744 5743 5741 5739 5737 5734 5731 5728 5726 5723 5720 5718 5715 5713 5710 5707 5704 5700 5697 5694 5691 5687 5683 5680 5676 5671 5667 5663 5659 5655 5652 5648 5645 5642 5639
5759 5757 5755 5752 5750 5748 5745 5744 5742 5740 5739 5736 5734 5732 5729 5727 5724 5721 5718 5716 5713 5710 5707 5704 5700 5697 5694 5690 5687 5683 5679 5675 5670 5666 5662 5658 5654 5650 5646 5643 5639 5636 5632
5757 5755 5752 5750 5748 5745 5743 5741 5740 5738 5736 5734 5732 5730 5727 5724 5722 5719 5716 5713 5710 5707 5704 5700 5697 5693 5690 5686 5682 5679 5675 5670 5666 5661 5657 5653 5649 5645 5641 5637 5634 5630 5626
5754 5752 5749 5747 5745 5743 5741 5739 5737 5735 5734 5731 5729 5727 5725 5722 5719 5716 5714 5711 5707 5704 5701 5697 5694 5690 5686 5682 5679 5675 5671 5666 5661 5656 5652 5648 5644 5640 5636 5633 5629 5625 5621
5750 5748 5746 5744 5742 5740 5738 5736 5734 5732 5731 5729 5726 5724 5722 5720 5717 5714 5711 5708 5704 5701 5698 5694 5691 5687 5683 5679 5675 5671 5666 5661 5657 5652 5648 5644 5640 5636 5631 5627 5623 5619 5615
5747 5745 5743 5741 5739 5737 5735 5733 5731 5729 5728 5726 5724 5721 5719 5717 5714 5711 5708 5705 5702 5698 5695 5691 5688 5683 5679 5675 5671 5666 5662 5657 5652 5648 5644 5639 5635 5631 5627 5622 5618 5614 5610
5743 5741 5740 5738 5736 5734 5732 5730 5728 5727 5725 5723 5720 5718 5716 5713 5711 5708 5705 5702 5699 5695 5692 5688 5684 5680 5676 5672 5668 5663 5658 5654 5649 5644 5640 5635 5631 5626 5622 5617 5613 5609 5605
Wind_Speed
20 21 21 21 22 23 23 24 25 25 24 24 24 24 23 24 24 22 20 20 21 21 21 21 21 22 22 23 23 23 23 23 23 24 24 24 24 24 25 25 25 25 25
21 21 22 22 22 22 24 25 25 26 25 25 25 25 25 24 23 22 20 19 20 21 22 21 21 22 22 23 23 24 23 23 24 24 25 25 25 24 25 26 26 27 26
21 22 22 21 22 24 26 26 25 25 25 24 23 22 23 22 22 20 20 21 21 22 22 22 24 24 24 24 23 23 23 23 24 24 25 25 25 24 25 25 26 26 26
22 22 22 22 23 24 25 25 25 25 25 24 23 22 21 21 21 20 20 20 21 22 23 23 23 24 24 23 23 23 23 24 24 25 26 26 25 25 25 25 26 25 26
21 21 21 22 22 24 24 24 24 24 24 23 22 21 20 20 20 20 20 20 21 22 23 22 22 23 23 22 22 22 23 23 24 25 25 25 25 25 25 25 25 25 26
20 20 20 21 21 21 22 22 22 22 22 21 20 20 20 21 20 20 20 20 20 21 21 21 22 22 22 21 22 23 23 24 24 24 24 24 24 24 24 24 24 24 25
19 18 19 18 17 17 18 19 19 20 19 19 19 18 19 19 19 19 19 20 20 19 19 20 21 21 21 22 22 22 22 23 23 23 23 23 24 24 24 24 24 25 26
16 16 16 15 15 15 16 17 17 18 17 18 18 19 19 19 19 19 20 20 20 20 20 20 20 21 21 22 22 22 22 22 23 23 23 23 23 24 24 25 26 26 27
15 15 16 16 16 16 17 16 16 16 16 16 17 18 18 19 19 19 20 19 20 20 20 20 21 21 21 22 23 22 22 22 23 23 24 24 24 24 24 24 25 26 26
14 14 16 16 16 16 16 16 15 15 14 14 15 16 16 16 17 19 19 19 20 21 21 21 21 21 21 22 22 22 22 23 23 23 24 24 24 24 24 25 25 25 26
15 15 15 15 15 15 15 14 14 14 14 13 14 15 15 15 16 17 18 19 20 20 21 20 20 22 22 22 22 23 23 23 23 24 24 24 24 25 25 26 26 26 26
14 14 15 15 15 15 14 14 13 13 13 13 13 14 14 15 15 16 18 18 18 19 19 18 19 20 21 22 23 23 23 23 24 24 24 25 25 26 26 26 26 26 27
13 14 13 13 13 13 13 12 12 12 12 12 13 14 13 14 14 15 17 17 17 17 18 18 19 20 21 22 23 22 22 23 23 24 24 25 25 26 27 27 27 27 27
13 13 13 13 12 12 12 11 11 12 13 13 13 13 13 14 15 15 16 16 16 16 17 17 18 19 21 22 21 22 22 22 23 23 24 24 25 26 26 27 27 27 27
14 14 13 13 12 11 11 11 12 12 13 13 13 13 13 14 15 15 16 15 15 16 16 17 18 19 21 21 21 21 21 21 22 23 24 24 25 25 26 26 27 27 27
14 14 13 13 13 12 12 12 12 12 13 13 13 14 13 14 15 15 15 15 15 15 16 16 17 19 20 20 20 20 20 21 22 22 23 24 25 25 25 26 26 26 26
15 14 14 14 14 12 12 13 12 12 12 13 13 14 14 14 13 13 14 14 15 15 15 17 18 18 18 19 19 19 20 21 21 22 23 23 23 24 24 24 25 24 24
14 13 14 14 13 13 12 13 13 13 13 13 14 14 14 14 13 12 13 13 14 15 16 17 17 17 18 19 19 19 20 20 21 21 22 23 23 23 23 23 23 23 23
14 14 14 13 13 13 13 13 13 13 13 13 13 14 14 13 12 12 13 13 14 15 15 16 17 18 18 18 18 19 19 20 21 22 22 23 23 23 23 23 23 23 23
14 14 14 14 14 14 13 13 13 13 13 13 13 14 14 14 14 14 14 14 14 15 15 17 17 18 18 18 18 19 21 21 22 22 22 22 22 22 21 21 21 21 22
13 14 14 14 14 14 13 13 12 12 13 13 14 13 14 14 14 14 14 14 15 15 16 17 18 18 18 18 19 20 21 22 22 23 22 22 22 21 21 21 21 21 21
14 14 14 14 13 14 13 12 12 12 13 13 13 14 14 14 15 15 15 15 15 16 17 17 17 18 18 18 19 20 21 22 22 22 22 22 21 21 21 21 21 21 21
14 14 14 14 13 13 13 12 13 13 13 13 13 14 15 15 15 15 15 16 16 16 17 18 18 18 19 19 19 20 21 22 22 22 22 21 21 21 21 22 22 22 21
15 14 14 13 13 13 12 12 12 13 13 13 14 14 15 15 15 15 16 16 16 17 17 18 18 19 20 20 20 20 22 22 22 22 22 21 20 20 21 22 22 21 21
14 14 14 14 13 13 12 12 12 13 13 13 14 14 14 15 15 15 16 16 17 17 18 18 19 19 19 20 20 21 21 22 21 21 21 21 21 21 21 22 22 21 21
14 14 14 14 13 13 13 12 12 12 13 13 13 14 14 15 15 16 16 17 17 18 18 19 19 19 19 20 20 20 21 22 21 21 21 21 21 21 22 22 22 21 21
Wind_Direction
284 284 281 281 282 281 281 283 285 286 285 283 283 281 281 281 282 281 278 278 277 273 273 276 281 282 282 282 282 283 283 284 284 283 283 283 283 281 279 277 275 274 273
285 284 283 283 282 283 283 283 284 284 284 282 281 279 280 282 283 285 281 278 277 275 275 277 280 281 282 280 280 280 281 284 286 285 283 283 281 280 279 278 275 273 272
288 286 283 281 279 280 281 282 282 281 281 280 279 277 279 282 283 283 281 280 278 277 279 279 281 281 283 281 279 281 282 284 286 285 284 283 282 280 279 278 277 274 273
291 286 282 280 279 281 283 282 282 280 280 278 275 275 278 281 281 281 279 277 279 279 281 281 282 283 283 283 280 281 282 283 285 286 285 284 284 283 281 278 277 276 275
293 288 285 284 282 282 284 284 282 280 279 278 277 276 277 280 281 281 281 279 280 281 281 281 282 282 282 285 284 283 283 285 286 287 286 283 283 284 283 279 277 276 276
297 293 290 287 285 286 286 284 282 280 279 279 278 277 277 278 279 280 281 282 281 280 280 281 282 283 285 287 286 285 286 287 288 289 289 285 283 284 284 281 278 276 276
300 297 294 289 289 288 287 285 283 284 281 278 277 279 278 278 278 281 281 282 283 282 282 282 283 284 286 288 288 286 288 288 289 290 290 289 287 285 283 280 278 277 277
307 305 300 298 295 293 290 289 287 287 283 280 279 280 280 279 278 281 282 282 282 281 282 283 285 286 286 287 288 289 288 288 288 288 289 289 288 285 283 283 282 281 280
313 310 305 304 305 302 297 294 289 287 285 284 282 282 282 282 283 283 281 281 282 281 283 285 287 286 287 287 288 290 290 289 288 288 288 288 287 286 286 285 284 284 282
314 311 310 309 307 305 302 298 294 291 289 289 287 285 285 286 288 286 283 282 283 282 284 287 288 288 289 290 291 292 291 289 289 289 287 287 288 287 286 286 286 285 284
313 313 314 312 311 310 307 303 302 297 293 293 290 289 288 291 291 289 286 285 284 284 287 289 291 291 292 293 291 293 294 292 291 291 289 289 289 288 288 286 286 287 286
314 313 315 315 313 313 309 306 304 301 298 295 290 292 293 294 294 291 289 288 287 288 290 294 296 294 294 295 295 294 294 294 294 293 291 291 291 290 289 288 287 288 287
319 315 317 319 317 317 314 311 307 304 304 304 298 300 298 299 300 297 294 291 293 294 295 297 300 301 300 299 298 295 294 294 295 295 296 294 293 292 291 290 290 291 289
325 323 320 322 323 318 315 313 311 314 311 311 308 308 307 306 305 302 301 301 300 299 299 301 304 305 305 303 302 300 298 296 296 297 297 296 295 294 293 292 292 291 288
322 323 321 322 321 318 314 311 313 318 319 319 314 313 311 309 307 305 304 304 303 304 304 304 306 308 308 307 306 305 302 300 299 299 300 299 298 296 296 295 294 291 289
320 322 321 319 319 318 315 313 314 314 318 321 320 319 315 311 309 307 306 307 309 310 309 309 309 311 311 310 309 307 304 303 304 304 303 302 301 299 299 296 295 294 292
323 322 319 320 322 321 321 318 315 316 318 322 323 324 321 317 313 309 309 311 314 314 313 311 312 313 313 314 313 311 309 308 307 305 304 305 304 303 302 299 297 296 294
322 320 318 321 323 320 317 318 315 316 318 321 324 328 325 322 319 315 315 315 316 316 315 315 314 315 315 315 314 313 312 311 310 311 310 310 307 305 303 303 300 300 298
321 320 319 320 319 319 316 314 315 315 317 319 323 328 329 325 326 324 322 320 318 319 320 320 318 316 317 318 318 316 316 315 314 314 313 311 308 306 306 305 304 303 302
320 321 320 318 319 319 316 312 314 316 316 320 325 329 331 330 329 328 326 325 323 322 323 324 323 321 320 321 321 320 319 318 316 315 315 315 313 311 309 309 309 308 306
319 320 319 320 322 322 319 318 316 313 314 319 324 327 327 330 331 331 330 329 328 327 325 326 326 325 323 322 322 322 322 320 318 318 318 318 318 316 315 313 312 311 308
315 317 318 319 321 322 320 317 316 316 316 318 320 324 326 328 332 332 331 331 330 331 331 331 331 328 326 325 325 325 325 322 321 322 321 320 320 319 319 318 316 314 311
312 314 316 315 319 321 318 317 316 315 317 319 323 325 329 331 331 332 332 330 330 331 333 332 332 332 329 328 327 327 326 324 323 322 322 322 322 321 320 319 318 317 315
308 310 312 314 318 318 317 317 318 317 315 317 320 325 327 329 330 330 332 332 331 331 332 332 331 332 332 330 328 326 327 325 324 322 323 323 323 322 321 321 319 317 316
305 305 308 312 315 316 317 316 316 317 317 319 321 324 326 327 329 330 331 332 331 330 330 330 330 332 333 333 331 330 330 330 328 327 325 324 324 324 323 321 321 320 319
303 302 303 305 307 310 313 314 315 317 320 322 323 323 324 325 328 329 330 331 330 329 329 329 331 333 335 335 335 336 335 333 331 328 328 327 327 326 325 324 322 321 319